1500289200.61,13556,17.81,74496.0,12.85,3.71,3.89,0,*40
1500289201.87,13557,17.81,74496.3,12.87,3.71,3.71,0,*44
1500289203.1,13558,17.81,74494.3,12.85,3.71,3.79,0,*41
1500289204.28,13559,17.81,74494.3,12.85,3.81,3.89,0,*40
1500289205.45,13560,17.81,74498.3,12.85,3.63,3.59,0,*4B
1500289206.65,13561,17.81,74498.5,12.87,3.55,3.55,0,*41
1500289207.9,13562,17.81,74498.3,12.87,3.11,3.23,0,*43
1500289209.13,13563,17.81,74492.8,12.85,3.33,3.45,0,*40
1500289210.36,13564,17.81,74500.0,12.85,3.67,3.67,0,*46
1500289211.53,13565,17.81,74494.8,12.85,3.59,3.59,0,*47
1500289212.79,13566,17.81,74496.0,12.83,3.37,3.49,0,*4B
1500289214.0,13567,17.81,74498.3,12.81,3.59,3.49,0,*40
1500289215.23,13568,17.81,74498.3,12.81,3.33,3.45,0,*4F
1500289216.44,13569,17.81,74500.0,12.81,3.25,3.33,0,*48
1500289217.67,13570,17.81,74498.8,12.81,3.49,3.45,0,*4B
1500289218.9,13571,17.81,74498.3,12.81,3.45,3.37,0,*43
1500289220.16,13572,17.81,74498.0,12.83,3.41,3.41,0,*47
1500289221.4,13573,17.81,74494.8,12.81,3.15,3.15,0,*44
1500289222.64,13574,17.81,74502.0,12.81,3.03,3.11,0,*40
1500289223.85,13575,17.81,74494.8,12.81,3.23,3.25,0,*44
1500289225.06,13576,17.81,74496.3,12.81,3.25,3.37,0,*42
1500289226.28,13577,17.81,74496.3,12.79,3.59,3.71,0,*4D
1500289227.54,13578,17.81,74492.3,12.79,3.53,3.45,0,*4F
1500289228.79,13579,17.81,74494.3,12.79,3.37,3.49,0,*40
1500289229.99,13580,17.81,74494.0,12.77,2.95,2.85,0,*40
1500289231.2,13581,17.81,74494.5,12.77,2.61,2.69,0,*48
1500289232.43,13582,17.81,74498.8,12.77,2.59,2.59,0,*43
1500289233.69,13583,17.81,74498.5,12.75,3.11,3.23,0,*41
1500289234.92,13584,17.81,74492.5,12.73,3.53,3.45,0,*46
1500289236.18,13585,17.81,74498.5,12.75,3.41,3.41,0,*46
1500289237.42,13586,17.81,74492.8,12.73,3.53,3.45,0,*44
1500289238.59,13587,17.81,74494.3,12.73,3.55,3.55,0,*42
1500289239.8,13588,17.81,74496.5,12.75,3.93,3.93,0,*4B
1500289241.07,13589,17.81,74500.0,12.75,3.45,3.41,0,*4E
1500289242.32,13590,17.81,74498.8,12.75,3.33,3.33,0,*42
1500289243.53,13591,17.75,74492.8,12.73,3.37,3.29,0,*4A
1500289244.79,13592,17.81,74498.3,12.75,3.79,3.79,0,*40
1500289246.03,13593,17.81,74498.5,12.73,3.75,3.75,0,*47
1500289247.25,13594,17.81,74496.5,12.73,3.53,3.53,0,*40
1500289248.44,13595,17.81,74494.8,12.73,3.85,3.89,0,*4D
1500289249.65,13596,17.81,74496.3,12.75,3.81,3.81,0,*44
1500289250.91,13597,17.81,74496.3,12.75,3.49,3.41,0,*4D
1500289252.14,13598,17.81,74494.5,12.73,3.37,3.37,0,*4C
1500289253.37,13599,17.81,74498.3,12.73,3.19,3.07,0,*42
1500289254.61,13600,17.81,74496.0,12.67,3.03,2.91,0,*41
1500289255.87,13601,17.81,74492.0,12.67,3.53,3.49,0,*41
1500289257.09,13602,17.81,74496.3,12.69,3.33,3.37,0,*43
1500289258.3,13603,17.81,74498.8,12.67,2.99,2.91,0,*40
1500289259.56,13604,17.81,74494.5,12.67,2.69,2.69,0,*4F
1500289260.78,13605,17.81,74492.8,12.65,3.07,2.99,0,*4A
1500289261.96,13606,17.81,74494.5,12.65,3.55,3.55,0,*4F
1500289263.19,13607,17.81,74498.5,12.65,3.37,3.37,0,*4E
1500289264.45,13608,17.81,74496.5,12.63,3.33,3.33,0,*47
1500289265.72,13609,17.81,74496.0,12.63,3.45,3.41,0,*42
1500289266.97,13610,17.81,74496.0,12.63,3.97,4.05,0,*42
1500289268.18,13611,17.81,74498.0,12.65,3.81,4.01,0,*46
1500289269.42,13612,17.81,74494.5,12.65,3.49,3.49,0,*4A
1500289270.61,13613,17.81,74496.3,12.65,3.81,3.81,0,*4B
1500289271.8,13614,17.81,74494.5,12.65,3.29,3.29,0,*4C
1500289273.01,13615,17.81,74494.5,12.65,3.29,3.23,0,*47
1500289274.25,13616,17.81,74494.8,12.65,3.23,3.19,0,*47
1500289275.45,13617,17.81,74496.5,12.63,3.55,3.63,0,*4C
1500289276.67,13618,17.81,74496.0,12.65,4.05,4.07,0,*42
1500289277.88,13619,17.81,74494.5,12.67,4.11,4.19,0,*4B
1500289279.07,13620,17.81,74496.8,12.65,4.07,4.15,0,*48
1500289280.27,13621,17.81,74496.3,12.65,4.01,4.15,0,*4F
1500289281.46,13622,17.81,74496.3,12.65,4.07,4.15,0,*4A
1500289282.68,13623,17.81,74498.0,12.65,3.79,3.81,0,*4F
1500289283.89,13624,17.81,74494.5,12.65,3.81,3.79,0,*48
1500289285.1,13625,17.81,74498.3,12.63,3.85,3.81,0,*4C
1500289286.37,13626,17.81,74492.8,12.67,3.75,3.71,0,*4B
1500289287.63,13627,17.81,74498.5,12.67,3.49,3.49,0,*4E
1500289288.9,13628,17.81,74494.0,12.67,3.23,3.15,0,*44
1500289290.15,13629,17.81,74494.0,12.63,2.21,2.21,0,*44
1500289291.4,13630,17.81,74494.8,12.63,2.21,2.13,0,*4D
1500289292.66,13631,17.81,74492.3,12.63,2.69,2.69,0,*4D
1500289293.84,13632,17.81,74496.5,12.59,3.29,3.29,0,*47
1500289295.07,13633,17.81,74496.0,12.61,4.01,4.05,0,*49
1500289296.26,13634,17.81,74494.8,12.59,4.07,4.07,0,*41
1500289297.5,13635,17.81,74498.3,12.61,4.05,4.05,0,*4B
1500289298.7,13636,17.81,74492.0,12.59,3.97,3.93,0,*47
1500289299.91,13637,17.81,74492.3,12.61,3.85,3.79,0,*4A
1500289301.09,13638,17.81,74494.3,12.61,4.11,4.11,0,*46
1500289302.31,13639,17.75,74494.0,12.61,4.11,4.05,0,*42
1500289303.52,13640,17.81,74496.3,12.61,4.11,4.05,0,*4C
1500289304.73,13641,17.81,74496.3,12.61,3.97,3.89,0,*47
1500289305.94,13642,17.81,74496.3,12.63,4.23,4.15,0,*4C
1500289307.15,13643,17.81,74492.8,12.65,4.31,4.49,0,*41
1500289308.36,13644,17.81,74494.8,12.63,4.45,4.49,0,*43
1500289309.61,13645,17.81,74500.8,12.65,4.71,4.71,0,*48
1500289310.79,13646,17.81,74498.5,12.65,4.49,4.49,0,*4B
1500289311.98,13647,17.81,74498.8,12.65,4.15,4.07,0,*49
1500289313.16,13648,17.81,74496.3,12.65,3.55,3.55,0,*45
1500289314.4,13649,17.81,74494.0,12.65,4.05,4.01,0,*40
1500289315.65,13650,17.81,74494.5,12.65,4.71,4.75,0,*48
1500289316.91,13651,17.81,74496.8,12.67,4.63,4.63,0,*4F
1500289318.1,13652,17.81,74496.5,12.69,4.45,4.53,0,*45
1500289319.33,13653,17.81,74496.8,12.73,4.59,4.67,0,*45
1500289320.52,13654,17.81,74496.0,12.73,4.45,4.45,0,*4F
1500289321.7,13655,17.81,74498.5,12.73,4.23,4.23,0,*4E
1500289322.89,13656,17.81,74498.5,12.73,4.11,4.07,0,*4A
1500289324.08,13657,17.81,74496.8,12.73,4.33,4.37,0,*48
1500289325.34,13658,17.81,74496.0,12.75,4.63,4.71,0,*46
1500289326.55,13659,17.81,74494.5,12.75,4.85,4.85,0,*44
1500289327.76,13660,17.81,74496.5,12.75,4.37,4.53,0,*4C
1500289328.99,13661,17.81,74498.3,12.75,4.49,4.63,0,*47
1500289330.21,13662,17.81,74494.5,12.75,4.63,4.81,0,*40
1500289331.43,13663,17.81,74498.0,12.77,4.53,4.71,0,*4F
1500289332.64,13664,17.81,74494.5,12.77,4.27,4.31,0,*4F
1500289333.9,13665,17.81,74496.5,12.79,4.63,4.75,0,*40
1500289335.16,13666,17.81,74494.8,12.79,4.79,4.97,0,*44
1500289336.39,13667,17.81,74496.0,12.83,4.89,4.97,0,*4F
1500289337.6,13668,17.81,74492.5,12.81,4.75,4.85,0,*42
1500289338.86,13669,17.81,74498.0,12.83,4.79,4.93,0,*4A
1500289340.08,13670,17.81,74498.5,12.83,4.49,4.59,0,*47
1500289341.29,13671,17.81,74498.0,12.87,4.45,4.45,0,*43
1500289342.49,13672,17.81,74496.0,12.85,4.81,4.93,0,*41
1500289343.73,13673,17.81,74498.0,12.87,5.01,5.11,0,*40
1500289344.94,13674,17.81,74500.5,12.87,5.11,5.33,0,*46
1500289346.17,13675,17.81,74498.8,12.87,5.01,5.07,0,*41
1500289347.38,13676,17.81,74498.5,12.87,4.07,4.15,0,*47
1500289348.61,13677,17.81,74498.0,12.87,3.63,3.71,0,*46
1500289349.86,13678,17.81,74498.0,12.87,3.71,3.71,0,*4A
1500289351.07,13679,17.81,74494.8,12.87,4.41,4.57,0,*4C
1500289352.26,13680,17.81,74498.8,12.89,4.33,4.53,0,*45
1500289353.44,13681,17.81,74494.5,12.89,4.07,4.15,0,*41
1500289354.66,13682,17.81,74498.5,12.89,3.71,3.81,0,*4E
1500289355.84,13683,17.81,74496.0,12.89,4.15,4.27,0,*41
1500289357.01,13684,17.81,74492.5,12.89,3.55,3.63,0,*42
1500289358.22,13685,17.81,74494.5,12.89,3.59,3.75,0,*48
1500289359.44,13686,17.81,74492.0,12.89,3.25,3.45,0,*43
1500289360.67,13687,17.81,74498.8,12.87,3.75,3.81,0,*41
1500289361.93,13688,17.81,74494.3,12.87,3.71,3.75,0,*41
1500289363.13,13689,17.81,74496.0,12.85,2.99,3.11,0,*47
1500289364.31,13690,17.81,74498.5,12.85,2.35,2.35,0,*4E
1500289365.51,13691,17.81,74496.3,12.83,2.95,2.91,0,*4D
1500289366.69,13692,17.81,74496.3,12.81,4.07,4.23,0,*4E
1500289367.9,13693,17.81,74498.3,12.81,4.45,4.67,0,*49
1500289369.13,13694,17.81,74492.8,12.81,3.45,3.53,0,*49
1500289370.33,13695,17.81,74496.5,12.81,3.53,3.59,0,*45
1500289371.53,13696,17.81,74498.8,12.81,3.85,3.97,0,*4F
1500289372.76,13697,17.81,74498.5,12.81,3.53,3.71,0,*4D
1500289373.94,13698,17.81,74498.0,12.81,2.91,2.99,0,*4A
1500289375.15,13699,17.81,74498.3,12.81,3.97,4.23,0,*4B
1500289376.33,13700,17.81,74494.3,12.81,4.33,4.45,0,*43
1500289377.51,13701,17.81,74498.3,12.81,4.41,4.57,0,*44
1500289378.72,13702,17.81,74492.8,12.83,4.37,4.45,0,*47
1500289379.95,13703,17.81,74496.8,12.83,3.79,3.85,0,*40
1500289381.16,13704,17.81,74498.3,12.81,3.97,4.23,0,*4E
1500289382.39,13705,17.81,74496.8,12.83,4.57,4.67,0,*46
1500289383.59,13706,17.81,74494.8,12.81,3.63,3.75,0,*43
1500289384.81,13707,17.81,74494.8,12.81,4.15,4.31,0,*43
1500289386.02,13708,17.81,74494.0,12.81,4.57,4.75,0,*4A
1500289387.25,13709,17.81,74494.3,12.83,4.71,4.89,0,*4E
1500289388.49,13710,17.81,74496.0,12.85,4.59,4.75,0,*49
1500289389.67,13711,17.81,74496.5,12.81,3.25,3.25,0,*42
1500289390.9,13712,17.81,74496.5,12.83,3.97,4.11,0,*4A
1500289392.09,13713,17.81,74496.8,12.83,4.19,4.27,0,*4F
1500289393.27,13714,17.81,74498.0,12.81,3.59,3.59,0,*47
1500289394.47,13715,17.81,74496.8,12.81,3.53,3.59,0,*4C
1500289395.71,13716,17.81,74498.0,12.81,3.75,3.71,0,*41
1500289396.91,13717,17.81,74498.0,12.79,3.81,3.85,0,*47
1500289398.14,13718,17.81,74498.0,12.79,3.93,3.97,0,*48
1500289399.37,13719,17.81,74496.8,12.79,3.93,3.97,0,*49
1500289400.58,13720,17.81,74496.5,12.79,4.23,4.23,0,*47
1500289401.76,13721,17.81,74492.8,12.77,3.89,3.81,0,*40
1500289402.95,13722,17.81,74494.3,12.77,3.89,3.81,0,*43
1500289404.18,13723,17.81,74496.0,12.77,3.79,3.71,0,*42
1500289405.39,13724,17.81,74498.5,12.77,4.27,4.31,0,*4A
1500289406.65,13725,17.81,74498.3,12.79,3.49,3.45,0,*4E
1500289407.89,13726,17.81,74498.5,12.77,3.41,3.41,0,*4F
1500289409.07,13727,17.81,74496.5,12.73,3.85,3.85,0,*4A
1500289410.33,13728,17.81,74496.0,12.75,4.05,4.01,0,*47
1500289411.58,13729,17.81,74498.0,12.75,3.49,3.41,0,*4A
1500289412.8,13730,17.81,74498.3,12.73,4.07,3.97,0,*42
1500289413.98,13731,17.81,74494.8,12.73,3.85,3.81,0,*49
1500289415.21,13732,17.81,74496.3,12.75,3.59,3.49,0,*49
1500289416.42,13733,17.81,74494.5,12.73,3.85,3.79,0,*4C
1500289417.6,13734,17.81,74496.3,12.73,3.89,3.85,0,*44
1500289418.84,13735,17.81,74500.3,12.73,3.41,3.37,0,*48
1500289420.05,13736,17.81,74498.3,12.69,4.11,3.97,0,*48
1500289421.29,13737,17.81,74502.0,12.67,3.41,3.25,0,*4C
1500289422.52,13738,17.81,74496.0,12.69,3.49,3.41,0,*47
1500289423.73,13739,17.81,74498.3,12.69,3.81,3.71,0,*41
1500289424.97,13740,17.81,74494.8,12.67,3.97,3.93,0,*4A
1500289426.21,13741,17.81,74496.0,12.67,3.41,3.25,0,*4D
1500289427.44,13742,17.81,74498.5,12.67,3.63,3.53,0,*4F
1500289428.7,13743,17.81,74498.0,12.67,4.05,3.97,0,*41
1500289429.91,13744,17.81,74498.8,12.67,3.93,3.85,0,*4D
1500289431.18,13745,17.81,74494.5,12.67,4.05,3.97,0,*47
1500289432.39,13746,17.81,74494.8,12.67,4.11,4.11,0,*48
1500289433.6,13747,17.81,74496.0,12.67,3.93,3.81,0,*4A
1500289434.86,13748,17.81,74498.3,12.67,3.97,3.97,0,*46
1500289436.07,13749,17.81,74494.8,12.67,4.33,4.45,0,*46
1500289437.32,13750,17.81,74496.8,12.67,4.31,4.33,0,*4D
1500289438.53,13751,17.81,74498.5,12.67,3.93,3.93,0,*4E
1500289439.79,13752,17.81,74496.3,12.67,3.97,3.97,0,*4D
1500289441.03,13753,17.81,74496.8,12.67,4.31,4.41,0,*4B
1500289442.24,13754,17.81,74498.8,12.69,4.57,4.63,0,*42
1500289443.43,13755,17.81,74494.3,12.73,4.57,4.57,0,*4F
1500289444.7,13756,17.81,74496.0,12.67,4.63,4.75,0,*4E
1500289445.88,13757,17.81,74498.0,12.69,4.33,4.41,0,*43
1500289447.12,13758,17.81,74496.3,12.69,4.05,4.05,0,*49
1500289448.33,13759,17.81,74498.0,12.69,3.81,3.75,0,*43
1500289449.51,13760,17.81,74498.0,12.69,3.85,3.85,0,*42
1500289450.72,13761,17.81,74496.3,12.69,4.31,4.45,0,*40
1500289451.9,13762,17.81,74494.3,12.69,4.33,4.45,0,*41
1500289453.08,13763,17.81,74494.5,12.69,4.19,4.23,0,*48
1500289454.29,13764,17.81,74498.0,12.69,3.71,3.59,0,*4C
1500289455.54,13765,17.81,74492.8,12.67,3.97,3.97,0,*49
1500289456.79,13766,17.81,74494.3,12.67,4.31,4.33,0,*48
1500289457.97,13767,17.81,74492.0,12.69,4.07,4.11,0,*42
1500289459.19,13768,17.81,74498.5,12.69,3.53,3.53,0,*4A
1500289460.44,13769,17.81,74496.5,12.67,3.53,3.53,0,*45
1500289461.7,13770,17.81,74498.5,12.67,3.33,3.33,0,*4D
1500289462.94,13771,17.81,74498.5,12.67,3.33,3.25,0,*4B
1500289464.21,13772,17.81,74492.5,12.63,3.07,3.15,0,*48
1500289465.42,13773,17.81,74496.5,12.63,3.29,3.25,0,*46
1500289466.64,13774,17.81,74496.5,12.63,4.01,4.15,0,*48
1500289467.85,13775,17.81,74494.0,12.63,4.11,4.23,0,*4D
1500289469.06,13776,17.81,74496.3,12.63,3.85,3.89,0,*43
1500289470.3,13777,17.81,74492.8,12.63,3.79,3.89,0,*41
1500289471.5,13778,17.81,74494.3,12.63,3.55,3.63,0,*44
1500289472.71,13779,17.81,74494.8,12.61,4.05,4.11,0,*47
1500289473.9,13780,17.81,74494.0,12.61,4.27,4.45,0,*40
1500289475.09,13781,17.81,74492.3,12.61,4.23,4.33,0,*44
1500289476.3,13782,17.81,74492.0,12.61,3.97,3.89,0,*49
1500289477.54,13783,17.81,74496.5,12.61,3.45,3.41,0,*43
1500289478.72,13784,17.81,74494.8,12.59,3.63,3.63,0,*4B
1500289479.9,13785,17.81,74492.3,12.61,4.11,4.11,0,*41
1500289481.11,13786,17.81,74494.5,12.61,4.05,4.11,0,*47
1500289482.34,13787,17.81,74492.8,12.61,3.19,3.19,0,*43
1500289483.55,13788,17.81,74492.3,12.61,3.25,3.19,0,*43
1500289484.78,13789,17.81,74494.3,12.57,3.67,3.59,0,*45
1500289486.02,13790,17.81,74498.0,12.57,3.93,3.97,0,*44
1500289487.23,13791,17.81,74494.8,12.57,3.89,3.81,0,*49
1500289488.49,13792,17.81,74492.8,12.57,3.71,3.79,0,*4A
1500289489.7,13793,17.81,74494.0,12.59,3.93,3.97,0,*49
1500289490.96,13794,17.81,74492.0,12.57,3.79,3.79,0,*44
1500289492.19,13795,17.81,74496.3,12.55,3.79,3.79,0,*47
1500289493.45,13796,17.81,74496.3,12.57,3.79,3.71,0,*4E
1500289494.64,13797,17.81,74494.8,12.55,3.81,3.81,0,*45
1500289495.84,13798,17.81,74494.0,12.57,4.15,4.27,0,*49
1500289497.05,13799,17.81,74496.8,12.59,4.31,4.33,0,*45
1500289498.23,13800,17.81,74494.0,12.55,4.15,4.15,0,*44
1500289499.42,13801,17.81,74494.8,12.55,4.15,4.07,0,*46
1500289500.67,13802,17.81,74494.5,12.57,3.97,3.97,0,*44
1500289501.9,13803,17.81,74494.8,12.55,3.33,3.33,0,*47
1500289503.13,13804,17.81,74492.5,12.55,2.89,2.85,0,*4C
1500289504.33,13805,17.81,74496.5,12.55,2.61,2.55,0,*46
1500289505.58,13806,17.81,74496.0,12.53,2.51,2.47,0,*43
1500289506.82,13807,17.81,74498.8,12.49,2.43,2.35,0,*4F
1500289508.08,13808,17.81,74496.3,12.45,2.89,2.89,0,*4D
1500289509.32,13809,17.81,74492.3,12.45,3.07,2.99,0,*4A
1500289510.58,13810,17.81,74496.0,12.45,3.23,3.11,0,*45
1500289511.79,13811,17.81,74492.3,12.49,3.63,3.63,0,*49
1500289513.02,13812,17.81,74492.3,12.45,3.81,3.79,0,*41
1500289514.25,13813,17.81,74492.8,12.43,3.45,3.37,0,*44
1500289515.48,13814,17.81,74494.0,12.43,3.37,3.23,0,*43
1500289516.65,13815,17.81,74494.5,12.43,3.59,3.59,0,*47
1500289517.92,13816,17.81,74496.0,12.41,3.67,3.71,0,*41
1500289519.18,13817,17.81,74496.0,12.41,3.79,3.67,0,*48
1500289520.39,13818,17.81,74496.8,12.43,3.25,3.33,0,*4D
1500289521.66,13819,17.81,74494.0,12.41,3.75,3.75,0,*49
1500289522.86,13820,17.81,74494.5,12.43,3.55,3.45,0,*40
1500289524.07,13821,17.81,74494.3,12.41,3.63,3.63,0,*42
1500289525.27,13822,17.81,74498.3,12.41,3.55,3.55,0,*41
1500289526.51,13823,17.81,74494.5,12.39,3.75,3.71,0,*4B
1500289527.73,13824,17.81,74498.0,12.39,3.97,3.97,0,*48
1500289528.94,13825,17.81,74496.0,12.39,4.01,4.07,0,*4F
1500289530.17,13826,17.81,74494.3,12.39,4.01,4.01,0,*4A
1500289531.43,13827,17.81,74496.5,12.41,3.79,3.67,0,*4B
1500289532.66,13828,17.81,74494.8,12.41,3.63,3.53,0,*48
1500289533.92,13829,17.81,74496.0,12.41,3.45,3.41,0,*4E
1500289535.13,13830,17.81,74498.0,12.39,3.59,3.53,0,*47
1500289536.33,13831,17.81,74496.0,12.37,2.99,2.91,0,*4A
1500289537.57,13832,17.81,74496.3,12.39,2.55,2.43,0,*48
1500289538.82,13833,17.81,74498.3,12.37,2.25,2.17,0,*41
1500289540.08,13834,17.81,74494.0,12.37,2.09,1.97,0,*43
1500289541.31,13835,17.81,74498.0,12.31,2.25,2.17,0,*41
1500289542.52,13836,17.81,74494.5,12.31,2.61,2.59,0,*48
1500289543.77,13837,17.81,74494.0,12.29,2.77,2.59,0,*47
1500289545.03,13838,17.81,74496.5,12.29,2.81,2.77,0,*4D
1500289546.27,13839,17.81,74496.8,12.27,2.59,2.55,0,*47
1500289547.49,13840,17.81,74492.8,12.23,2.89,2.77,0,*40
1500289548.7,13841,17.81,74494.3,12.23,3.55,3.49,0,*4D
1500289549.93,13842,17.81,74498.5,12.27,3.53,3.49,0,*4C
1500289551.15,13843,17.81,74498.8,12.23,3.33,3.23,0,*43
1500289552.38,13844,17.81,74496.5,12.23,3.45,3.37,0,*40
1500289553.59,13845,17.81,74494.0,12.27,3.89,3.97,0,*4F
1500289554.77,13846,17.81,74494.8,12.23,2.99,2.91,0,*4F
1500289556.0,13847,17.81,74492.8,12.23,2.85,2.77,0,*4B
1500289557.23,13848,17.81,74492.3,12.23,3.37,3.33,0,*4D
1500289558.44,13849,17.81,74496.3,12.23,3.23,3.25,0,*4E
1500289559.67,13850,17.81,74494.5,12.23,3.33,3.15,0,*44
1500289560.87,13851,17.81,74496.8,12.23,3.55,3.49,0,*4C
1500289562.1,13852,17.81,74492.0,12.21,3.59,3.53,0,*4A
1500289563.3,13853,17.81,74496.8,12.19,3.55,3.53,0,*4C
1500289564.55,13854,17.81,74494.5,12.21,3.71,3.79,0,*4E
1500289565.81,13855,17.81,74494.5,12.21,3.53,3.41,0,*44
1500289567.01,13856,17.81,74494.8,12.21,3.55,3.59,0,*48
1500289568.19,13857,17.81,74494.0,12.19,3.59,3.59,0,*4E
1500289569.42,13858,17.81,74494.5,12.21,3.71,3.81,0,*45
1500289570.66,13859,17.81,74492.3,12.21,3.79,3.89,0,*44
1500289571.89,13860,17.81,74498.3,12.19,3.71,3.79,0,*42
1500289573.15,13861,17.81,74496.3,12.21,3.53,3.45,0,*47
1500289574.4,13862,17.81,74496.8,12.21,3.67,3.67,0,*43
1500289575.63,13863,17.81,74494.3,12.21,3.59,3.67,0,*4F
1500289576.87,13864,17.81,74492.0,12.19,3.79,3.79,0,*4E
1500289578.1,13865,17.81,74496.3,12.19,3.71,3.71,0,*4F
1500289579.36,13866,17.81,74492.3,12.21,3.67,3.67,0,*47
1500289580.55,13867,17.81,74494.8,12.19,3.89,3.93,0,*46
1500289581.74,13868,17.81,74494.8,12.19,3.89,3.89,0,*42
1500289582.93,13869,17.81,74496.0,12.19,3.81,3.93,0,*40
1500289584.16,13870,17.81,74496.8,12.21,3.89,4.01,0,*47
1500289585.37,13871,17.81,74496.8,12.21,3.81,3.89,0,*49
1500289586.58,13872,17.81,74498.0,12.19,3.71,3.81,0,*46
1500289587.79,13873,17.81,74494.8,12.19,3.93,4.01,0,*44
1500289588.98,13874,17.81,74496.0,12.19,3.89,3.89,0,*4F
1500289590.24,13875,17.81,74498.3,12.21,3.71,3.71,0,*45
1500289591.48,13876,17.81,74492.3,12.19,3.67,3.71,0,*4A
1500289592.68,13877,17.81,74492.5,12.19,3.33,3.29,0,*47
1500289593.88,13878,17.81,74494.3,12.19,3.55,3.53,0,*45
1500289595.09,13879,17.81,74498.5,12.17,3.29,3.25,0,*40
1500289596.34,13880,17.81,74496.5,12.17,2.85,2.69,0,*48
1500289597.52,13881,17.81,74492.8,12.15,2.31,2.27,0,*4E
1500289598.75,13882,17.81,74494.5,12.13,2.47,2.35,0,*49
1500289600.01,13883,17.81,74492.3,12.13,2.77,2.89,0,*4C
1500289601.22,13884,17.81,74494.8,12.11,2.39,2.35,0,*44
1500289602.45,13885,17.81,74494.0,12.11,2.85,2.85,0,*49
1500289603.68,13886,17.81,74492.5,12.07,3.07,3.03,0,*49
1500289604.95,13887,17.81,74492.8,12.09,3.07,3.03,0,*46
1500289606.18,13888,17.81,74494.5,12.07,3.45,3.45,0,*43
1500289607.36,13889,17.81,74492.8,12.07,2.91,2.91,0,*42
1500289608.54,13890,17.81,74498.3,12.07,3.29,3.25,0,*46
1500289609.74,13891,17.81,74494.5,12.07,3.29,3.19,0,*48
1500289611.0,13892,17.81,74494.3,12.05,3.03,3.11,0,*49
1500289612.22,13893,17.81,74494.0,11.99,2.65,2.59,0,*42
1500289613.4,13894,17.81,74494.5,11.99,2.99,2.99,0,*4A
1500289614.63,13895,17.81,74492.0,11.99,2.85,2.77,0,*46
1500289615.86,13896,17.81,74492.0,11.99,2.89,2.85,0,*44
1500289617.09,13897,17.81,74492.0,11.99,3.33,3.37,0,*4D
1500289618.34,13898,17.81,74494.8,11.97,3.45,3.53,0,*4F
1500289619.59,13899,17.81,74492.8,11.97,3.45,3.53,0,*4E
1500289620.85,13900,17.81,74494.8,11.97,3.45,3.45,0,*48
1500289622.06,13901,17.81,74498.0,11.99,3.29,3.23,0,*4D
1500289623.29,13902,17.81,74498.8,11.97,2.91,2.85,0,*4F
1500289624.55,13903,17.81,74496.5,11.97,3.07,3.07,0,*4B
1500289625.79,13904,17.81,74494.3,11.97,3.07,2.91,0,*42
1500289627.0,13905,17.81,74492.8,11.93,2.65,2.59,0,*46
1500289628.2,13906,17.81,74496.8,11.95,2.99,2.91,0,*44
1500289629.46,13907,17.81,74492.8,11.95,3.49,3.49,0,*4D
1500289630.72,13908,17.81,74494.5,11.95,3.71,3.75,0,*46
1500289631.89,13909,17.81,74494.0,11.93,3.63,3.63,0,*45
1500289633.13,13910,17.81,74494.0,11.95,3.63,3.71,0,*48
1500289634.37,13911,17.81,74496.0,11.95,3.75,3.81,0,*41
1500289635.55,13912,17.81,74494.5,11.93,3.85,3.93,0,*48
1500289636.79,13913,17.81,74498.5,11.95,3.75,3.93,0,*40
1500289638.01,13914,17.81,74498.3,11.93,3.97,3.97,0,*49
1500289639.25,13915,17.81,74492.3,11.95,3.75,3.59,0,*40
1500289640.52,13916,17.81,74494.0,11.95,3.15,3.15,0,*4D
1500289641.72,13917,17.81,74496.3,11.93,3.03,2.91,0,*40
1500289642.9,13918,17.81,74498.5,11.93,2.99,2.91,0,*4D
1500289644.08,13919,17.81,74496.0,11.93,2.99,2.91,0,*4C
1500289645.33,13920,17.81,74496.8,11.91,3.11,3.07,0,*4B
1500289646.53,13921,17.81,74498.5,11.89,3.29,3.23,0,*4E
1500289647.73,13922,17.81,74498.8,11.89,3.29,3.23,0,*4D
1500289648.98,13923,17.81,74496.8,11.91,3.33,3.45,0,*4E
1500289650.22,13924,17.81,74496.3,11.89,3.41,3.45,0,*45
1500289651.45,13925,17.81,74496.0,11.89,3.33,3.33,0,*40
1500289652.7,13926,17.81,74494.8,11.87,3.19,3.23,0,*44
1500289653.95,13927,17.81,74496.5,11.87,3.23,3.23,0,*4C
1500289655.22,13928,17.81,74498.0,11.87,3.41,3.45,0,*47
1500289656.45,13929,17.81,74498.5,11.87,3.33,3.29,0,*49
1500289657.68,13930,17.81,74498.3,11.87,3.29,3.23,0,*40
1500289658.89,13931,17.81,74496.5,11.87,3.29,3.29,0,*4B
1500289660.08,13932,17.81,74498.8,11.85,3.29,3.25,0,*46
1500289661.31,13933,17.81,74494.3,11.85,3.41,3.53,0,*48
1500289662.55,13934,17.81,74494.8,11.87,4.05,4.15,0,*4F
1500289663.76,13935,17.81,74494.8,11.87,3.89,3.89,0,*4F
1500289665.02,13936,17.81,74496.8,11.87,4.01,4.05,0,*48
1500289666.21,13937,17.81,74496.8,11.85,4.27,4.37,0,*4E
1500289667.41,13938,17.81,74496.5,11.87,4.15,4.27,0,*43
1500289668.64,13939,17.81,74494.5,11.87,3.63,3.67,0,*47
1500289669.9,13940,17.81,74498.3,11.87,3.97,3.97,0,*4D
1500289671.16,13941,17.81,74490.8,11.87,3.33,3.41,0,*49
1500289672.36,13942,17.81,74498.0,11.85,3.25,3.19,0,*42
1500289673.62,13943,17.81,74496.0,11.87,3.23,3.23,0,*4E
1500289674.87,13944,17.81,74494.0,11.87,3.33,3.37,0,*4D
1500289676.11,13945,17.81,74496.5,11.85,3.41,3.49,0,*42
1500289677.31,13946,17.81,74496.8,11.85,3.53,3.63,0,*4A
1500289678.54,13947,17.81,74496.5,11.85,3.49,3.49,0,*48
1500289679.77,13948,17.81,74496.8,11.85,3.37,3.37,0,*47
1500289680.98,13949,17.81,74494.8,11.85,3.63,3.71,0,*45
1500289682.21,13950,17.81,74498.5,11.81,3.33,3.37,0,*4E
1500289683.42,13951,17.81,74494.0,11.81,3.89,4.05,0,*48
1500289684.65,13952,17.81,74492.3,11.85,3.97,3.97,0,*4C
1500289685.85,13953,17.81,74492.0,11.87,4.23,4.27,0,*4B
1500289687.03,13954,17.81,74492.0,11.85,4.11,4.19,0,*42
1500289688.21,13955,17.81,74492.3,11.85,4.07,4.11,0,*4C
1500289689.42,13956,17.81,74494.3,11.87,4.15,4.15,0,*4A
1500289690.62,13957,17.81,74498.5,11.85,4.01,4.11,0,*48
1500289691.88,13958,17.81,74492.3,11.87,3.97,3.97,0,*44
1500289693.09,13959,17.81,74498.5,11.87,3.89,3.89,0,*45
1500289694.28,13960,17.81,74494.8,11.85,3.81,3.93,0,*4E
1500289695.49,13961,17.81,74502.0,11.87,3.89,3.89,0,*4E
1500289696.7,13962,17.81,74496.3,11.87,3.85,3.89,0,*41
1500289697.91,13963,17.81,74496.5,11.87,4.11,4.15,0,*48
1500289699.1,13964,17.81,74498.5,11.85,4.07,4.07,0,*49
1500289700.31,13965,17.81,74494.3,11.87,4.11,4.15,0,*4E
1500289701.52,13966,17.81,74496.3,11.87,3.89,3.89,0,*49
1500289702.71,13967,17.81,74494.5,11.85,4.11,4.11,0,*4A
1500289703.94,13968,17.81,74498.0,11.87,3.79,3.89,0,*48
1500289705.18,13969,17.81,74498.0,11.87,4.05,4.11,0,*43
1500289706.38,13970,17.81,74498.5,11.87,3.63,3.63,0,*4E
1500289707.64,13971,17.81,74498.3,11.87,3.33,3.45,0,*4E
1500289708.84,13972,17.81,74498.8,11.87,3.55,3.55,0,*4C
1500289710.07,13973,17.81,74498.5,11.85,3.37,3.37,0,*4F
1500289711.33,13974,17.81,74498.3,11.87,3.33,3.33,0,*4A
1500289712.56,13975,17.81,74500.5,11.85,3.49,3.41,0,*41
1500289713.8,13976,17.81,74498.5,11.81,3.15,3.23,0,*4B
1500289715.03,13977,17.81,74498.5,11.81,3.79,3.79,0,*4F
1500289716.22,13978,17.81,74500.3,11.81,3.93,3.93,0,*40
1500289717.46,13979,17.81,74498.8,11.81,4.05,4.05,0,*41
1500289718.65,13980,17.81,74498.5,11.81,3.49,3.55,0,*4A
1500289719.87,13981,17.81,74496.0,11.81,3.79,3.81,0,*41
1500289721.05,13982,17.81,74496.8,11.81,4.07,4.15,0,*46
1500289722.26,13983,17.81,74496.5,11.85,3.63,3.75,0,*47
1500289723.49,13984,17.81,74498.5,11.85,3.11,3.11,0,*47